�������l�o���
Date,Time,MP-1(��Sv/h),MP-2(��Sv/h),MP-3(��Sv/h),MP-4(��Sv/h),MP-5(��Sv/h),MP-6(��Sv/h),MP-7(��Sv/h),MP-8(��Sv/h),����,����(m/s),���J
2016/05/17,00:00,1.598,2.547,2.583,2.356,2.540,0.666,1.235,1.067,��,7.9,��
2016/05/17,00:10,1.598,2.547,2.580,2.350,2.542,0.667,1.233,1.067,��쓌,7.9,��
2016/05/17,00:20,1.600,2.550,2.580,2.354,2.536,0.666,1.232,1.067,��쓌,6.9,��
2016/05/17,00:30,1.598,2.548,2.579,2.356,2.544,0.665,1.233,1.067,��,5.8,��
2016/05/17,00:40,1.602,2.547,2.578,2.350,2.539,0.666,1.232,1.067,��쓌,6.5,��
2016/05/17,00:50,1.600,2.550,2.578,2.351,2.540,0.666,1.232,1.065,��쓌,7.6,��
2016/05/17,01:00,1.600,2.550,2.580,2.351,2.540,0.666,1.232,1.067,��,7.6,��
2016/05/17,01:10,1.598,2.550,2.579,2.352,2.542,0.667,1.232,1.068,��,8.4,��
2016/05/17,01:20,1.600,2.547,2.581,2.355,2.546,0.666,1.233,1.067,��,6.7,��
2016/05/17,01:30,1.598,2.547,2.578,2.351,2.540,0.669,1.231,1.066,��,6.3,��
2016/05/17,01:40,1.597,2.548,2.579,2.355,2.541,0.668,1.234,1.068,��,5.4,��
2016/05/17,01:50,1.600,2.547,2.581,2.354,2.540,0.668,1.234,1.067,��,4.8,��
2016/05/17,02:00,1.598,2.548,2.579,2.354,2.538,0.667,1.234,1.067,��,5.9,��
2016/05/17,02:10,1.600,2.550,2.579,2.355,2.539,0.668,1.234,1.068,��,6.0,��
2016/05/17,02:20,1.598,2.545,2.579,2.355,2.542,0.667,1.235,1.068,��,5.5,��
2016/05/17,02:30,1.598,2.547,2.583,2.353,2.540,0.670,1.233,1.066,��,5.7,��
2016/05/17,02:40,1.598,2.548,2.578,2.352,2.542,0.667,1.233,1.067,��,5.9,��
2016/05/17,02:50,1.598,2.547,2.585,2.353,2.540,0.666,1.231,1.068,��,5.9,��
2016/05/17,03:00,1.597,2.545,2.580,2.352,2.538,0.667,1.230,1.068,��,5.2,��
2016/05/17,03:10,1.598,2.545,2.578,2.352,2.540,0.667,1.229,1.067,��,5.4,��
2016/05/17,03:20,1.600,2.548,2.583,2.352,2.541,0.668,1.230,1.067,��,7.4,��
2016/05/17,03:30,1.600,2.547,2.582,2.354,2.542,0.669,1.231,1.067,��,7.3,��
2016/05/17,03:40,1.598,2.545,2.580,2.351,2.539,0.668,1.230,1.067,��,7.1,�L
2016/05/17,03:50,1.597,2.543,2.575,2.350,2.529,0.667,1.231,1.065,��,6.3,�L
2016/05/17,04:00,1.597,2.540,2.575,2.350,2.533,0.668,1.229,1.068,��,5.9,��
2016/05/17,04:10,1.598,2.543,2.571,2.350,2.532,0.665,1.229,1.066,��,4.5,��
2016/05/17,04:20,1.597,2.542,2.571,2.353,2.530,0.667,1.230,1.066,��,5.0,�L
2016/05/17,04:30,1.597,2.538,2.570,2.350,2.528,0.666,1.230,1.064,��,3.8,�L
2016/05/17,04:40,1.598,2.535,2.562,2.349,2.523,0.665,1.228,1.063,��쐼,3.1,�L
2016/05/17,04:50,1.595,2.530,2.563,2.345,2.515,0.666,1.230,1.063,��,3.8,�L
2016/05/17,05:00,1.592,2.532,2.561,2.342,2.512,0.665,1.227,1.063,��,3.4,�L
2016/05/17,05:10,1.595,2.527,2.558,2.341,2.508,0.664,1.223,1.062,��,3.9,�L
2016/05/17,05:20,1.590,2.523,2.554,2.340,2.501,0.662,1.223,1.061,��,3.7,�L
2016/05/17,05:30,1.593,2.523,2.550,2.343,2.504,0.663,1.224,1.060,��,3.4,�L
2016/05/17,05:40,1.593,2.520,2.549,2.341,2.501,0.664,1.223,1.061,��,3.3,�L
2016/05/17,05:50,1.588,2.510,2.532,2.331,2.478,0.660,1.221,1.058,��쐼,3.1,�L
2016/05/17,06:00,1.580,2.497,2.514,2.318,2.457,0.655,1.218,1.057,��쐼,2.6,�L
2016/05/17,06:10,1.577,2.478,2.500,2.309,2.445,0.657,1.213,1.054,��쐼,3.4,�L
2016/05/17,06:20,1.572,2.467,2.487,2.294,2.429,0.653,1.208,1.053,��쐼,2.3,�L
2016/05/17,06:30,1.563,2.453,2.476,2.286,2.416,0.651,1.206,1.052,���쐼,1.4,�L
2016/05/17,06:40,1.560,2.447,2.466,2.275,2.402,0.651,1.205,1.044,���k��,0.9,�L
2016/05/17,06:50,1.552,2.440,2.460,2.270,2.404,0.650,1.203,1.045,�k�k��,1.7,�L
2016/05/17,07:00,1.548,2.435,2.452,2.263,2.390,0.649,1.203,1.043,�k�k��,3.6,�L
2016/05/17,07:10,1.545,2.427,2.446,2.257,2.381,0.647,1.200,1.044,�k�k��,4.9,�L
2016/05/17,07:20,1.540,2.420,2.437,2.249,2.370,0.647,1.199,1.041,�k,4.2,�L
2016/05/17,07:30,1.535,2.413,2.429,2.242,2.362,0.647,1.198,1.041,�k�k��,2.8,�L
2016/05/17,07:40,1.530,2.403,2.422,2.233,2.363,0.644,1.197,1.038,�k�k��,4.3,�L
2016/05/17,07:50,1.532,2.408,2.426,2.236,2.363,0.645,1.196,1.038,�k�k��,4.6,�L
2016/05/17,08:00,1.527,2.413,2.427,2.233,2.369,0.647,1.198,1.041,�k�k��,4.5,�L
2016/05/17,08:10,1.528,2.407,2.419,2.233,2.358,0.646,1.196,1.039,�k�k��,7.2,�L
2016/05/17,08:20,1.525,2.398,2.408,2.222,2.346,0.644,1.193,1.036,�k�k��,6.7,�L
2016/05/17,08:30,1.520,2.393,2.407,2.215,2.342,0.644,1.191,1.034,�k�k��,5.2,�L
2016/05/17,08:40,1.517,2.392,2.402,2.214,2.340,0.643,1.190,1.036,�k�k��,6.5,�L
2016/05/17,08:50,1.517,2.387,2.399,2.207,2.334,0.640,1.188,1.034,�k,6.8,�L
2016/05/17,09:00,1.513,2.378,2.391,2.204,2.323,0.642,1.186,1.033,�k�k��,7.5,�L
2016/05/17,09:10,1.513,2.375,2.388,2.200,2.319,0.640,1.184,1.032,�k�k��,7.2,�L
2016/05/17,09:20,1.510,2.373,2.383,2.198,2.316,0.639,1.182,1.033,�k�k��,6.2,�L
2016/05/17,09:30,1.508,2.367,2.379,2.193,2.309,0.637,1.182,1.029,�k,6.4,�L
2016/05/17,09:40,1.505,2.368,2.382,2.196,2.312,0.640,1.182,1.034,�k�k��,7.9,�L
2016/05/17,09:50,1.510,2.368,2.378,2.194,2.308,0.641,1.183,1.030,�k,7.7,�L
2016/05/17,10:00,1.507,2.370,2.377,2.193,2.304,0.641,1.182,1.031,�k,7.0,�L
2016/05/17,10:10,1.505,2.363,2.372,2.186,2.299,0.639,1.179,1.030,�k�k��,8.5,�L
2016/05/17,10:20,1.505,2.360,2.372,2.188,2.293,0.637,1.177,1.029,�k�k��,8.4,�L
2016/05/17,10:30,1.505,2.358,2.376,2.184,2.292,0.640,1.180,1.029,�k,7.0,�L
2016/05/17,10:40,1.503,2.358,2.363,2.184,2.286,0.638,1.177,1.031,�k,5.5,�L
2016/05/17,10:50,1.502,2.357,2.363,2.178,2.280,0.636,1.175,1.024,�k�k��,6.3,�L
2016/05/17,11:00,1.500,2.353,2.361,2.180,2.274,0.638,1.174,1.027,�k�k��,9.7,�L
2016/05/17,11:10,1.498,2.353,2.357,2.174,2.267,0.635,1.167,1.024,�k,8.9,�L
2016/05/17,11:20,1.498,2.352,2.359,2.176,2.268,0.637,1.172,1.026,�k,9.2,�L
2016/05/17,11:30,1.502,2.353,2.359,2.180,2.265,0.637,1.173,1.026,�k,7.9,�L
2016/05/17,11:40,1.502,2.357,2.358,2.177,2.264,0.636,1.173,1.027,�k�k��,8.1,�L
2016/05/17,11:50,1.502,2.357,2.355,2.180,2.262,0.636,1.175,1.026,�k�k��,7.3,�L
2016/05/17,12:00,1.500,2.350,2.357,2.177,2.268,0.636,1.172,1.026,�k�k��,7.2,�L
2016/05/17,12:10,1.503,2.355,2.362,2.179,2.266,0.639,1.176,1.028,�k�k��,7.3,�L
2016/05/17,12:20,1.503,2.357,2.359,2.181,2.265,0.637,1.175,1.028,�k�k��,7.7,�L
2016/05/17,12:30,1.503,2.360,2.361,2.180,2.269,0.637,1.175,1.029,�k�k��,7.8,�L
2016/05/17,12:40,1.505,2.357,2.358,2.181,2.266,0.639,1.173,1.025,�k,8.2,�L
2016/05/17,12:50,1.505,2.355,2.360,2.181,2.268,0.636,1.175,1.029,�k,7.0,�L
2016/05/17,13:00,1.505,2.355,2.363,2.188,2.272,0.638,1.176,1.028,�k,6.8,��
2016/05/17,13:10,1.507,2.360,2.369,2.188,2.278,0.637,1.178,1.031,�k,6.3,��
2016/05/17,13:20,1.507,2.367,2.374,2.188,2.280,0.639,1.178,1.031,�k,7.2,��
2016/05/17,13:30,1.512,2.367,2.372,2.192,2.282,0.639,1.176,1.030,�k,6.3,�L
2016/05/17,13:40,1.508,2.363,2.360,2.186,2.270,0.637,1.178,1.028,�k,7.6,�L
2016/05/17,13:50,1.505,2.353,2.356,2.176,2.260,0.639,1.175,1.029,�k,8.6,�L
2016/05/17,14:00,1.503,2.343,2.341,2.167,2.243,0.637,1.172,1.026,�k,7.4,�L
2016/05/17,14:10,1.498,2.342,2.345,2.166,2.240,0.639,1.172,1.027,�k,6.8,�L
2016/05/17,14:20,1.497,2.343,2.346,2.168,2.240,0.636,1.172,1.025,�k,9.7,�L
2016/05/17,14:30,1.500,2.345,2.350,2.174,2.240,0.638,1.173,1.027,�k,10.0,��
2016/05/17,14:40,1.502,2.348,2.347,2.173,2.237,0.638,1.173,1.027,�k,9.1,�L
2016/05/17,14:50,1.493,2.328,2.320,2.158,2.225,0.640,1.175,1.028,�k,8.2,�L
2016/05/17,15:00,1.483,2.312,2.319,2.153,2.212,0.639,1.176,1.027,�k,8.5,�L
2016/05/17,15:10,1.485,2.317,2.322,2.152,2.200,0.636,1.174,1.027,�k,7.8,�L
2016/05/17,15:20,1.490,2.328,2.335,2.157,2.196,0.635,1.171,1.025,�k,7.9,�L
2016/05/17,15:30,1.495,2.342,2.337,2.165,2.209,0.636,1.170,1.023,�k,7.9,�L
2016/05/17,15:40,1.500,2.345,2.347,2.169,2.220,0.638,1.171,1.025,�k,7.3,��
2016/05/17,15:50,1.498,2.347,2.348,2.170,2.225,0.639,1.171,1.024,�k,8.6,��
2016/05/17,16:00,1.505,2.350,2.350,2.173,2.231,0.639,1.174,1.026,�k,7.9,�L
2016/05/17,16:10,1.503,2.350,2.355,2.179,2.234,0.638,1.172,1.027,�k,7.7,��
2016/05/17,16:20,1.503,2.360,2.355,2.179,2.241,0.641,1.176,1.026,�k,6.9,��
2016/05/17,16:30,1.503,2.362,2.362,2.187,2.247,0.640,1.175,1.028,�k,6.9,�L
2016/05/17,16:40,1.505,2.365,2.362,2.185,2.249,0.640,1.175,1.028,�k,6.4,��
2016/05/17,16:50,1.505,2.368,2.364,2.183,2.253,0.638,1.176,1.030,�k,6.9,��
2016/05/17,17:00,1.507,2.370,2.364,2.188,2.254,0.639,1.176,1.029,�k,6.6,��
2016/05/17,17:10,1.510,2.367,2.366,2.188,2.260,0.641,1.177,1.027,�k,6.7,��
2016/05/17,17:20,1.510,2.370,2.370,2.189,2.262,0.637,1.177,1.030,�k,5.8,��
2016/05/17,17:30,1.508,2.370,2.372,2.189,2.270,0.638,1.177,1.032,�k,6.7,��
2016/05/17,17:40,1.510,2.372,2.373,2.192,2.268,0.639,1.178,1.031,�k,6.0,��
2016/05/17,17:50,1.508,2.375,2.375,2.191,2.271,0.638,1.178,1.032,�k,6.4,��
2016/05/17,18:00,1.508,2.373,2.374,2.195,2.276,0.640,1.178,1.031,�k,6.5,��
2016/05/17,18:10,1.510,2.375,2.376,2.193,2.275,0.639,1.178,1.032,�k,6.0,��
2016/05/17,18:20,1.510,2.372,2.377,2.194,2.278,0.639,1.180,1.031,�k,5.8,��
2016/05/17,18:30,1.510,2.378,2.376,2.198,2.280,0.639,1.181,1.033,�k,5.4,��
2016/05/17,18:40,1.513,2.378,2.379,2.200,2.284,0.639,1.181,1.032,�k,4.8,��
2016/05/17,18:50,1.513,2.378,2.378,2.196,2.283,0.639,1.178,1.033,�k,5.8,��
2016/05/17,19:00,1.512,2.380,2.381,2.198,2.285,0.637,1.183,1.032,�k,4.1,��
2016/05/17,19:10,1.512,2.385,2.378,2.201,2.287,0.639,1.182,1.034,�k�k��,5.2,��
2016/05/17,19:20,1.510,2.382,2.381,2.204,2.288,0.640,1.182,1.033,�k�k��,5.9,��
2016/05/17,19:30,1.513,2.382,2.380,2.200,2.291,0.640,1.184,1.034,�k�k��,5.8,��
2016/05/17,19:40,1.512,2.383,2.380,2.200,2.290,0.639,1.181,1.032,�k�k��,5.4,��
2016/05/17,19:50,1.513,2.385,2.380,2.202,2.294,0.643,1.184,1.033,�k,5.2,��
2016/05/17,20:00,1.515,2.385,2.383,2.201,2.294,0.640,1.185,1.034,�k�k��,4.4,��
2016/05/17,20:10,1.515,2.382,2.382,2.201,2.293,0.640,1.186,1.033,�k�k��,5.7,��
2016/05/17,20:20,1.517,2.387,2.382,2.203,2.296,0.641,1.184,1.034,�k,5.8,��
2016/05/17,20:30,1.515,2.385,2.383,2.204,2.295,0.640,1.185,1.033,�k�k��,6.5,��
2016/05/17,20:40,1.513,2.387,2.382,2.203,2.298,0.640,1.185,1.035,�k�k��,5.5,��
2016/05/17,20:50,1.512,2.383,2.386,2.201,2.299,0.639,1.185,1.035,�k,5.4,��
2016/05/17,21:00,1.515,2.387,2.379,2.206,2.295,0.639,1.187,1.034,�k,5.1,��
2016/05/17,21:10,1.515,2.387,2.384,2.206,2.297,0.640,1.187,1.034,�k,5.0,��
2016/05/17,21:20,1.517,2.387,2.388,2.208,2.299,0.641,1.187,1.034,�k�k��,5.4,��
2016/05/17,21:30,1.513,2.388,2.387,2.205,2.301,0.639,1.186,1.035,�k,6.2,��
2016/05/17,21:40,1.512,2.392,2.385,2.209,2.301,0.640,1.188,1.034,�k,5.6,��
2016/05/17,21:50,1.512,2.388,2.387,2.204,2.295,0.642,1.186,1.035,�k�k��,5.0,��
2016/05/17,22:00,1.512,2.388,2.389,2.207,2.302,0.642,1.190,1.035,�k�k��,5.6,��
2016/05/17,22:10,1.517,2.387,2.385,2.207,2.300,0.640,1.186,1.033,�k�k��,5.5,��
2016/05/17,22:20,1.517,2.390,2.386,2.209,2.300,0.640,1.186,1.038,�k,4.5,��
2016/05/17,22:30,1.518,2.390,2.388,2.208,2.302,0.642,1.186,1.035,�k�k��,4.7,��
2016/05/17,22:40,1.517,2.388,2.388,2.207,2.305,0.642,1.185,1.035,�k�k��,4.3,��
2016/05/17,22:50,1.517,2.392,2.387,2.210,2.306,0.642,1.186,1.038,�k��,5.0,��
2016/05/17,23:00,1.517,2.395,2.388,2.212,2.303,0.642,1.189,1.036,�k��,3.6,��
2016/05/17,23:10,1.517,2.390,2.386,2.211,2.305,0.641,1.185,1.035,�k��,3.8,��
2016/05/17,23:20,1.513,2.393,2.389,2.209,2.306,0.643,1.190,1.033,�k��,4.2,��
2016/05/17,23:30,1.515,2.390,2.389,2.207,2.303,0.642,1.189,1.035,�k��,5.3,��
2016/05/17,23:40,1.513,2.390,2.387,2.209,2.305,0.643,1.187,1.036,�k��,7.0,��
2016/05/17,23:50,1.517,2.390,2.388,2.209,2.302,0.642,1.188,1.034,�k��,7.9,��
